QPF
0.00 0.00 0.01 0.04 0.04 0.06 0.08 0.07 0.05 0.04 0.03 0.04 0.06 0.06 0.04 0.04 0.05 0.04 0.05 0.06 0.08 0.08 0.09 0.10 0.12 0.11 0.10 0.09 0.07 0.06 0.05 0.05 0.05 0.05 0.04 0.02 0.04 0.04 0.05 0.05 0.04 0.04 0.03
0.01 0.01 0.01 0.02 0.02 0.04 0.06 0.06 0.05 0.05 0.05 0.05 0.08 0.09 0.06 0.05 0.05 0.05 0.06 0.07 0.07 0.07 0.07 0.08 0.10 0.10 0.10 0.11 0.10 0.09 0.06 0.05 0.06 0.07 0.06 0.05 0.05 0.08 0.08 0.06 0.04 0.03 0.04
0.02 0.02 0.02 0.02 0.03 0.03 0.03 0.04 0.04 0.05 0.06 0.06 0.08 0.09 0.08 0.06 0.06 0.05 0.06 0.06 0.06 0.06 0.06 0.06 0.07 0.09 0.11 0.11 0.09 0.08 0.06 0.05 0.05 0.05 0.06 0.05 0.05 0.05 0.05 0.05 0.05 0.04 0.04
0.03 0.03 0.03 0.03 0.03 0.03 0.03 0.03 0.04 0.04 0.04 0.05 0.06 0.08 0.07 0.06 0.06 0.06 0.07 0.06 0.07 0.07 0.07 0.06 0.06 0.07 0.07 0.07 0.08 0.10 0.09 0.08 0.06 0.04 0.04 0.05 0.04 0.04 0.03 0.03 0.03 0.03 0.02
0.02 0.03 0.03 0.02 0.03 0.04 0.06 0.05 0.04 0.05 0.05 0.06 0.08 0.09 0.10 0.09 0.08 0.08 0.08 0.07 0.07 0.06 0.05 0.04 0.05 0.06 0.06 0.06 0.06 0.08 0.07 0.07 0.06 0.04 0.04 0.04 0.04 0.04 0.03 0.04 0.04 0.03 0.03
0.02 0.02 0.02 0.01 0.02 0.04 0.08 0.08 0.07 0.08 0.08 0.09 0.11 0.13 0.15 0.14 0.10 0.10 0.09 0.08 0.07 0.05 0.03 0.03 0.03 0.03 0.05 0.06 0.06 0.06 0.08 0.09 0.08 0.06 0.04 0.04 0.04 0.03 0.03 0.04 0.05 0.05 0.04
0.04 0.03 0.03 0.03 0.03 0.04 0.08 0.10 0.09 0.09 0.09 0.09 0.10 0.13 0.16 0.17 0.13 0.11 0.09 0.08 0.06 0.04 0.03 0.02 0.02 0.02 0.03 0.05 0.05 0.06 0.06 0.06 0.06 0.06 0.04 0.04 0.03 0.02 0.03 0.04 0.04 0.06 0.06
0.05 0.03 0.03 0.03 0.03 0.03 0.04 0.07 0.10 0.12 0.12 0.11 0.09 0.10 0.13 0.16 0.14 0.10 0.08 0.07 0.04 0.04 0.03 0.01 0.02 0.02 0.02 0.04 0.04 0.04 0.04 0.04 0.04 0.04 0.04 0.04 0.03 0.03 0.04 0.04 0.05 0.05 0.05
0.04 0.04 0.04 0.04 0.04 0.03 0.04 0.06 0.08 0.10 0.12 0.13 0.11 0.10 0.11 0.11 0.12 0.11 0.08 0.06 0.04 0.04 0.03 0.02 0.02 0.02 0.02 0.03 0.03 0.03 0.03 0.02 0.02 0.03 0.04 0.04 0.04 0.04 0.04 0.04 0.05 0.05 0.04
0.05 0.04 0.04 0.04 0.03 0.04 0.04 0.05 0.05 0.05 0.07 0.10 0.11 0.11 0.10 0.10 0.10 0.10 0.08 0.05 0.04 0.03 0.02 0.02 0.03 0.02 0.02 0.02 0.02 0.04 0.04 0.02 0.02 0.02 0.03 0.04 0.03 0.04 0.03 0.03 0.03 0.03 0.04
0.06 0.05 0.04 0.04 0.04 0.04 0.04 0.04 0.05 0.05 0.06 0.08 0.09 0.11 0.12 0.12 0.10 0.09 0.08 0.05 0.03 0.02 0.02 0.02 0.02 0.03 0.02 0.02 0.03 0.03 0.03 0.02 0.02 0.02 0.02 0.02 0.03 0.02 0.03 0.02 0.03 0.03 0.04
0.06 0.05 0.04 0.04 0.04 0.04 0.04 0.05 0.06 0.07 0.07 0.07 0.07 0.07 0.07 0.08 0.08 0.07 0.06 0.06 0.04 0.02 0.02 0.02 0.02 0.01 0.02 0.01 0.02 0.03 0.03 0.02 0.01 0.01 0.01 0.02 0.03 0.03 0.03 0.03 0.03 0.03 0.05
0.03 0.04 0.05 0.06 0.05 0.05 0.04 0.05 0.06 0.06 0.06 0.05 0.05 0.05 0.05 0.06 0.07 0.06 0.05 0.05 0.04 0.02 0.02 0.01 0.01 0.01 0.01 0.01 0.02 0.03 0.03 0.02 0.02 0.02 0.02 0.02 0.02 0.02 0.02 0.04 0.05 0.05 0.04
0.02 0.03 0.05 0.06 0.07 0.08 0.08 0.07 0.08 0.08 0.07 0.07 0.05 0.04 0.05 0.05 0.06 0.06 0.05 0.05 0.04 0.03 0.02 0.01 0.01 0.01 0.01 0.01 0.02 0.04 0.03 0.02 0.02 0.03 0.03 0.02 0.02 0.01 0.01 0.03 0.05 0.07 0.05
0.03 0.03 0.03 0.05 0.08 0.11 0.13 0.13 0.12 0.11 0.09 0.07 0.06 0.06 0.04 0.03 0.03 0.04 0.04 0.05 0.05 0.03 0.01 0.01 0.01 0.01 0.02 0.01 0.02 0.02 0.02 0.02 0.02 0.02 0.02 0.01 0.02 0.02 0.03 0.04 0.05 0.06 0.05
0.02 0.03 0.05 0.05 0.06 0.07 0.10 0.12 0.12 0.10 0.07 0.06 0.06 0.07 0.05 0.03 0.03 0.04 0.04 0.04 0.04 0.03 0.01 0.01 0.01 0.02 0.03 0.04 0.04 0.01 0.02 0.03 0.03 0.03 0.03 0.03 0.03 0.03 0.03 0.03 0.04 0.05 0.06
0.02 0.04 0.05 0.05 0.06 0.06 0.07 0.07 0.05 0.04 0.04 0.06 0.07 0.07 0.07 0.05 0.03 0.03 0.04 0.04 0.03 0.02 0.01 0.01 0.01 0.01 0.02 0.04 0.06 0.03 0.01 0.02 0.03 0.04 0.04 0.04 0.03 0.02 0.02 0.02 0.02 0.02 0.05
0.02 0.03 0.04 0.04 0.04 0.05 0.05 0.05 0.05 0.04 0.04 0.05 0.07 0.06 0.06 0.04 0.02 0.02 0.03 0.02 0.02 0.02 0.02 0.01 0.02 0.01 0.01 0.03 0.05 0.04 0.02 0.02 0.02 0.04 0.05 0.04 0.03 0.02 0.01 0.01 0.01 0.01 0.02
0.02 0.02 0.03 0.04 0.04 0.04 0.03 0.04 0.04 0.04 0.05 0.07 0.07 0.05 0.04 0.04 0.02 0.02 0.03 0.02 0.02 0.03 0.02 0.02 0.02 0.02 0.02 0.03 0.03 0.03 0.02 0.01 0.02 0.03 0.03 0.04 0.03 0.01 0.01 0.00 0.00 0.01 0.01
0.03 0.03 0.04 0.06 0.05 0.05 0.05 0.05 0.05 0.05 0.05 0.06 0.07 0.05 0.04 0.04 0.03 0.03 0.03 0.03 0.03 0.04 0.04 0.03 0.02 0.02 0.02 0.03 0.03 0.03 0.02 0.01 0.02 0.02 0.02 0.02 0.02 0.01 0.01 0.01 0.00 0.00 0.01
0.04 0.04 0.04 0.05 0.06 0.06 0.06 0.06 0.05 0.06 0.06 0.06 0.06 0.06 0.06 0.05 0.05 0.05 0.05 0.05 0.04 0.03 0.03 0.03 0.02 0.01 0.02 0.02 0.03 0.03 0.03 0.02 0.02 0.02 0.02 0.01 0.01 0.01 0.00 0.01 0.01 0.01 0.01
0.04 0.05 0.06 0.07 0.07 0.06 0.06 0.08 0.09 0.09 0.10 0.09 0.09 0.08 0.08 0.07 0.06 0.05 0.05 0.05 0.04 0.03 0.02 0.02 0.01 0.01 0.03 0.03 0.02 0.03 0.03 0.03 0.02 0.03 0.02 0.01 0.01 0.01 0.00 0.00 0.00 0.01 0.01
0.02 0.03 0.05 0.06 0.09 0.10 0.10 0.09 0.08 0.07 0.07 0.07 0.07 0.06 0.05 0.03 0.03 0.03 0.03 0.03 0.03 0.03 0.02 0.02 0.02 0.01 0.02 0.04 0.03 0.02 0.03 0.02 0.02 0.03 0.02 0.02 0.01 0.01 0.01 0.01 0.01 0.01 0.01
0.01 0.01 0.03 0.04 0.04 0.06 0.06 0.06 0.05 0.04 0.03 0.03 0.03 0.03 0.03 0.02 0.03 0.03 0.03 0.02 0.01 0.01 0.01 0.02 0.02 0.02 0.02 0.03 0.04 0.03 0.03 0.03 0.02 0.02 0.02 0.02 0.01 0.01 0.01 0.01 0.01 0.02 0.01
0.01 0.02 0.04 0.04 0.03 0.04 0.03 0.03 0.04 0.03 0.02 0.02 0.01 0.02 0.02 0.02 0.02 0.02 0.02 0.02 0.02 0.01 0.02 0.02 0.02 0.02 0.02 0.03 0.04 0.05 0.04 0.04 0.03 0.02 0.01 0.01 0.01 0.01 0.01 0.01 0.01 0.02 0.02
0.02 0.03 0.04 0.04 0.04 0.05 0.03 0.02 0.02 0.02 0.02 0.02 0.02 0.02 0.02 0.02 0.03 0.02 0.02 0.03 0.03 0.03 0.03 0.03 0.02 0.01 0.02 0.03 0.04 0.04 0.05 0.04 0.04 0.03 0.01 0.02 0.02 0.02 0.02 0.02 0.02 0.02 0.02
MSLP
1010.91 1011.38 1011.86 1012.34 1012.80 1013.23 1013.61 1013.95 1014.23 1014.48 1014.69 1014.88 1015.05 1015.19 1015.30 1015.37 1015.39 1015.36 1015.30 1015.22 1015.13 1015.07 1015.04 1015.05 1015.09 1015.14 1015.19 1015.23 1015.24 1015.22 1015.19 1015.16 1015.15 1015.18 1015.25 1015.35 1015.47 1015.60 1015.71 1015.79 1015.84 1015.88 1015.91
1011.66 1012.18 1012.69 1013.18 1013.63 1014.02 1014.37 1014.67 1014.92 1015.15 1015.36 1015.56 1015.73 1015.87 1015.98 1016.03 1016.02 1015.96 1015.86 1015.76 1015.66 1015.59 1015.56 1015.58 1015.63 1015.69 1015.74 1015.76 1015.75 1015.72 1015.68 1015.65 1015.65 1015.69 1015.78 1015.90 1016.05 1016.20 1016.33 1016.43 1016.49 1016.54 1016.57
1012.45 1013.00 1013.52 1014.01 1014.44 1014.81 1015.13 1015.39 1015.63 1015.85 1016.06 1016.25 1016.43 1016.57 1016.66 1016.68 1016.64 1016.55 1016.41 1016.27 1016.15 1016.07 1016.04 1016.05 1016.10 1016.16 1016.21 1016.23 1016.22 1016.19 1016.15 1016.12 1016.13 1016.19 1016.30 1016.44 1016.61 1016.77 1016.91 1017.02 1017.09 1017.14 1017.18
1013.26 1013.80 1014.32 1014.79 1015.20 1015.55 1015.84 1016.09 1016.31 1016.52 1016.72 1016.92 1017.09 1017.22 1017.29 1017.29 1017.22 1017.09 1016.92 1016.74 1016.59 1016.49 1016.44 1016.44 1016.49 1016.55 1016.60 1016.62 1016.62 1016.60 1016.58 1016.57 1016.60 1016.68 1016.81 1016.97 1017.15 1017.32 1017.47 1017.57 1017.64 1017.69 1017.73
1014.07 1014.57 1015.05 1015.49 1015.87 1016.19 1016.45 1016.69 1016.90 1017.10 1017.30 1017.49 1017.65 1017.77 1017.83 1017.81 1017.71 1017.55 1017.35 1017.15 1016.97 1016.84 1016.77 1016.75 1016.78 1016.84 1016.89 1016.93 1016.95 1016.96 1016.96 1016.99 1017.06 1017.17 1017.32 1017.49 1017.67 1017.84 1017.97 1018.07 1018.13 1018.16 1018.19
1014.86 1015.28 1015.69 1016.07 1016.41 1016.70 1016.94 1017.16 1017.36 1017.56 1017.75 1017.93 1018.08 1018.19 1018.24 1018.21 1018.10 1017.92 1017.71 1017.49 1017.28 1017.12 1017.03 1016.99 1017.00 1017.04 1017.09 1017.15 1017.19 1017.23 1017.28 1017.36 1017.46 1017.61 1017.78 1017.97 1018.15 1018.30 1018.42 1018.50 1018.53 1018.55 1018.56
1015.58 1015.89 1016.21 1016.53 1016.81 1017.07 1017.30 1017.50 1017.69 1017.88 1018.06 1018.23 1018.38 1018.48 1018.52 1018.49 1018.39 1018.22 1018.00 1017.77 1017.55 1017.37 1017.25 1017.17 1017.16 1017.18 1017.22 1017.27 1017.34 1017.41 1017.51 1017.63 1017.78 1017.96 1018.16 1018.36 1018.54 1018.69 1018.79 1018.84 1018.85 1018.84 1018.83
1016.21 1016.40 1016.63 1016.87 1017.11 1017.34 1017.55 1017.73 1017.91 1018.08 1018.25 1018.41 1018.54 1018.65 1018.70 1018.68 1018.59 1018.44 1018.24 1018.02 1017.79 1017.60 1017.44 1017.33 1017.27 1017.25 1017.27 1017.32 1017.39 1017.49 1017.62 1017.78 1017.98 1018.20 1018.43 1018.64 1018.83 1018.96 1019.05 1019.08 1019.07 1019.04 1019.00
1016.72 1016.82 1016.96 1017.14 1017.34 1017.54 1017.73 1017.90 1018.06 1018.22 1018.36 1018.50 1018.63 1018.73 1018.79 1018.79 1018.74 1018.62 1018.45 1018.25 1018.03 1017.82 1017.63 1017.48 1017.37 1017.30 1017.27 1017.29 1017.34 1017.45 1017.60 1017.80 1018.03 1018.28 1018.54 1018.78 1018.97 1019.11 1019.19 1019.21 1019.18 1019.13 1019.08
1017.13 1017.15 1017.24 1017.37 1017.54 1017.72 1017.89 1018.05 1018.20 1018.32 1018.44 1018.56 1018.67 1018.77 1018.84 1018.87 1018.85 1018.77 1018.64 1018.47 1018.27 1018.05 1017.83 1017.63 1017.46 1017.33 1017.24 1017.20 1017.23 1017.31 1017.46 1017.67 1017.93 1018.22 1018.50 1018.77 1018.98 1019.13 1019.22 1019.24 1019.21 1019.15 1019.09
1017.46 1017.44 1017.50 1017.61 1017.76 1017.93 1018.09 1018.23 1018.34 1018.44 1018.53 1018.61 1018.70 1018.79 1018.87 1018.92 1018.94 1018.91 1018.83 1018.70 1018.52 1018.30 1018.06 1017.81 1017.58 1017.37 1017.21 1017.11 1017.08 1017.13 1017.26 1017.46 1017.73 1018.03 1018.34 1018.63 1018.88 1019.05 1019.15 1019.19 1019.16 1019.11 1019.04
1017.74 1017.72 1017.77 1017.88 1018.02 1018.18 1018.32 1018.43 1018.52 1018.58 1018.63 1018.68 1018.74 1018.81 1018.89 1018.97 1019.03 1019.05 1019.01 1018.92 1018.77 1018.56 1018.31 1018.03 1017.75 1017.47 1017.24 1017.06 1016.96 1016.95 1017.04 1017.22 1017.48 1017.79 1018.12 1018.43 1018.70 1018.91 1019.04 1019.09 1019.08 1019.04 1018.97
1018.01 1018.00 1018.06 1018.17 1018.31 1018.45 1018.58 1018.66 1018.71 1018.74 1018.74 1018.75 1018.78 1018.84 1018.92 1019.02 1019.11 1019.17 1019.19 1019.15 1019.04 1018.86 1018.61 1018.31 1017.99 1017.66 1017.36 1017.11 1016.94 1016.87 1016.90 1017.04 1017.28 1017.57 1017.91 1018.24 1018.53 1018.77 1018.92 1019.00 1019.01 1018.98 1018.91
1018.28 1018.29 1018.36 1018.47 1018.61 1018.74 1018.83 1018.89 1018.91 1018.89 1018.86 1018.83 1018.84 1018.88 1018.95 1019.06 1019.18 1019.29 1019.37 1019.38 1019.32 1019.17 1018.95 1018.66 1018.32 1017.96 1017.61 1017.30 1017.07 1016.93 1016.91 1017.00 1017.19 1017.47 1017.79 1018.12 1018.42 1018.68 1018.86 1018.96 1018.99 1018.96 1018.89
1018.54 1018.57 1018.65 1018.76 1018.88 1018.99 1019.07 1019.09 1019.08 1019.03 1018.96 1018.91 1018.89 1018.92 1019.00 1019.12 1019.27 1019.42 1019.54 1019.61 1019.61 1019.51 1019.34 1019.07 1018.75 1018.38 1018.01 1017.67 1017.39 1017.20 1017.12 1017.15 1017.29 1017.52 1017.81 1018.13 1018.43 1018.69 1018.88 1018.99 1019.03 1019.00 1018.93
1018.79 1018.83 1018.91 1019.01 1019.11 1019.20 1019.25 1019.25 1019.21 1019.14 1019.06 1018.99 1018.96 1018.98 1019.06 1019.20 1019.37 1019.55 1019.72 1019.84 1019.90 1019.87 1019.75 1019.54 1019.25 1018.91 1018.55 1018.20 1017.90 1017.67 1017.53 1017.51 1017.59 1017.77 1018.01 1018.29 1018.57 1018.81 1019.00 1019.11 1019.15 1019.12 1019.04
1019.00 1019.04 1019.10 1019.19 1019.28 1019.35 1019.38 1019.37 1019.32 1019.24 1019.15 1019.08 1019.05 1019.07 1019.16 1019.31 1019.49 1019.70 1019.90 1020.07 1020.18 1020.21 1020.16 1020.01 1019.79 1019.50 1019.18 1018.85 1018.55 1018.30 1018.13 1018.06 1018.08 1018.20 1018.38 1018.61 1018.84 1019.05 1019.22 1019.32 1019.34 1019.30 1019.21
1019.14 1019.17 1019.23 1019.31 1019.38 1019.44 1019.47 1019.46 1019.41 1019.33 1019.26 1019.20 1019.18 1019.21 1019.30 1019.45 1019.65 1019.87 1020.09 1020.28 1020.43 1020.52 1020.52 1020.45 1020.30 1020.08 1019.82 1019.54 1019.26 1019.02 1018.84 1018.73 1018.70 1018.75 1018.87 1019.03 1019.21 1019.37 1019.51 1019.58 1019.59 1019.54 1019.42
1019.19 1019.23 1019.29 1019.37 1019.44 1019.50 1019.53 1019.53 1019.49 1019.44 1019.38 1019.35 1019.34 1019.39 1019.48 1019.63 1019.82 1020.03 1020.25 1020.46 1020.62 1020.74 1020.80 1020.80 1020.72 1020.58 1020.40 1020.18 1019.96 1019.74 1019.56 1019.42 1019.36 1019.35 1019.40 1019.50 1019.62 1019.73 1019.82 1019.87 1019.86 1019.79 1019.67
1019.15 1019.21 1019.29 1019.38 1019.46 1019.53 1019.58 1019.59 1019.58 1019.55 1019.52 1019.51 1019.52 1019.57 1019.67 1019.81 1019.98 1020.17 1020.37 1020.56 1020.73 1020.87 1020.96 1021.01 1021.00 1020.95 1020.84 1020.70 1020.54 1020.37 1020.21 1020.07 1019.97 1019.92 1019.92 1019.95 1020.01 1020.08 1020.13 1020.15 1020.12 1020.04 1019.91
1019.05 1019.14 1019.24 1019.35 1019.46 1019.54 1019.60 1019.64 1019.64 1019.64 1019.64 1019.64 1019.68 1019.74 1019.83 1019.96 1020.10 1020.26 1020.43 1020.59 1020.74 1020.88 1020.99 1021.07 1021.13 1021.14 1021.12 1021.06 1020.97 1020.85 1020.73 1020.60 1020.49 1020.41 1020.37 1020.35 1020.36 1020.39 1020.41 1020.40 1020.36 1020.27 1020.13
1018.88 1019.02 1019.16 1019.30 1019.42 1019.52 1019.59 1019.63 1019.66 1019.67 1019.69 1019.72 1019.76 1019.83 1019.93 1020.03 1020.15 1020.28 1020.40 1020.53 1020.65 1020.77 1020.89 1021.00 1021.09 1021.17 1021.22 1021.24 1021.22 1021.17 1021.08 1020.98 1020.88 1020.79 1020.72 1020.67 1020.64 1020.64 1020.63 1020.62 1020.57 1020.48 1020.33
1018.68 1018.86 1019.04 1019.20 1019.33 1019.44 1019.51 1019.55 1019.58 1019.60 1019.63 1019.68 1019.74 1019.82 1019.92 1020.02 1020.12 1020.21 1020.31 1020.40 1020.49 1020.59 1020.70 1020.82 1020.95 1021.08 1021.19 1021.27 1021.32 1021.33 1021.29 1021.23 1021.14 1021.05 1020.96 1020.90 1020.86 1020.83 1020.82 1020.80 1020.75 1020.66 1020.51
1018.47 1018.69 1018.88 1019.05 1019.19 1019.28 1019.33 1019.37 1019.39 1019.41 1019.44 1019.50 1019.58 1019.68 1019.79 1019.90 1020.00 1020.08 1020.15 1020.22 1020.29 1020.37 1020.48 1020.61 1020.76 1020.92 1021.08 1021.22 1021.32 1021.38 1021.39 1021.35 1021.29 1021.21 1021.13 1021.06 1021.02 1020.99 1020.98 1020.96 1020.91 1020.83 1020.68
1018.26 1018.49 1018.69 1018.85 1018.96 1019.03 1019.06 1019.06 1019.07 1019.08 1019.13 1019.20 1019.31 1019.43 1019.57 1019.69 1019.80 1019.89 1019.97 1020.03 1020.09 1020.17 1020.27 1020.41 1020.57 1020.76 1020.95 1021.12 1021.27 1021.37 1021.41 1021.41 1021.37 1021.31 1021.24 1021.19 1021.15 1021.13 1021.12 1021.11 1021.07 1020.99 1020.85
1018.04 1018.27 1018.46 1018.59 1018.67 1018.70 1018.69 1018.67 1018.66 1018.67 1018.72 1018.81 1018.94 1019.10 1019.27 1019.43 1019.57 1019.69 1019.77 1019.85 1019.92 1020.00 1020.11 1020.26 1020.44 1020.64 1020.85 1021.05 1021.22 1021.35 1021.42 1021.44 1021.43 1021.38 1021.34 1021.29 1021.27 1021.27 1021.27 1021.27 1021.25 1021.17 1021.03
Thickness
5744 5743 5742 5742 5741 5741 5740 5740 5739 5738 5738 5737 5737 5736 5736 5736 5735 5735 5734 5734 5733 5733 5732 5731 5729 5728 5727 5726 5724 5722 5721 5719 5718 5717 5716 5715 5714 5712 5711 5710 5709 5709 5708
5742 5741 5740 5739 5739 5738 5738 5737 5736 5735 5734 5733 5733 5733 5733 5733 5732 5732 5731 5731 5730 5729 5729 5728 5727 5726 5724 5723 5721 5720 5719 5718 5717 5715 5714 5713 5712 5711 5709 5708 5707 5706 5706
5739 5738 5738 5737 5736 5736 5735 5734 5733 5732 5731 5730 5729 5729 5729 5729 5729 5729 5728 5727 5727 5726 5725 5724 5724 5723 5721 5720 5719 5717 5716 5715 5714 5713 5712 5711 5710 5709 5707 5706 5705 5704 5703
5737 5735 5735 5734 5733 5732 5731 5730 5729 5728 5726 5726 5725 5725 5725 5725 5725 5725 5724 5724 5723 5723 5722 5721 5720 5719 5718 5717 5716 5715 5714 5713 5712 5711 5709 5708 5707 5706 5705 5703 5702 5702 5701
5733 5732 5731 5731 5730 5729 5728 5727 5725 5723 5721 5721 5720 5720 5720 5720 5720 5721 5721 5720 5720 5719 5718 5718 5717 5716 5715 5714 5713 5712 5711 5710 5709 5708 5706 5705 5704 5703 5702 5701 5699 5699 5698
5730 5728 5728 5727 5726 5725 5724 5722 5720 5719 5718 5717 5717 5715 5715 5716 5717 5717 5717 5716 5716 5715 5714 5714 5713 5712 5711 5710 5710 5709 5708 5707 5706 5705 5703 5702 5701 5700 5699 5698 5697 5696 5695
5726 5724 5723 5722 5722 5721 5720 5719 5717 5715 5713 5713 5710 5708 5710 5712 5712 5713 5713 5712 5711 5711 5710 5710 5709 5708 5707 5707 5706 5705 5705 5704 5703 5702 5700 5699 5698 5697 5696 5695 5694 5694 5693
5722 5720 5719 5719 5718 5717 5716 5715 5713 5710 5709 5709 5706 5702 5700 5702 5706 5709 5708 5708 5707 5707 5707 5707 5706 5704 5704 5703 5703 5702 5702 5701 5700 5699 5698 5697 5695 5694 5693 5692 5692 5691 5691
5719 5717 5716 5715 5714 5713 5712 5710 5709 5707 5704 5704 5703 5700 5695 5693 5696 5701 5703 5703 5703 5703 5703 5703 5703 5702 5701 5700 5700 5699 5699 5698 5697 5696 5695 5694 5693 5691 5690 5689 5689 5689 5688
5714 5713 5712 5711 5710 5709 5708 5707 5705 5704 5702 5699 5699 5698 5697 5696 5691 5691 5695 5697 5698 5699 5699 5700 5699 5698 5697 5697 5696 5696 5696 5695 5694 5693 5692 5691 5690 5689 5687 5687 5686 5685 5685
5710 5709 5708 5707 5706 5705 5704 5703 5702 5700 5699 5697 5695 5694 5692 5691 5690 5686 5685 5689 5692 5694 5695 5696 5695 5695 5694 5694 5693 5693 5693 5692 5691 5690 5689 5688 5687 5686 5685 5684 5683 5682 5682
5704 5704 5703 5702 5701 5700 5699 5698 5698 5697 5695 5694 5692 5691 5689 5687 5686 5684 5682 5682 5684 5688 5690 5691 5691 5691 5690 5690 5690 5690 5689 5689 5688 5686 5686 5685 5684 5683 5682 5681 5680 5680 5679
5698 5698 5697 5696 5695 5695 5694 5694 5692 5691 5690 5689 5688 5686 5686 5685 5685 5683 5680 5679 5679 5681 5684 5686 5687 5686 5686 5686 5686 5686 5686 5685 5684 5683 5682 5681 5680 5679 5678 5678 5677 5677 5676
5693 5693 5692 5691 5691 5690 5689 5688 5687 5686 5685 5684 5683 5682 5681 5681 5681 5680 5678 5675 5673 5674 5676 5679 5681 5682 5682 5682 5682 5682 5682 5681 5681 5680 5679 5678 5677 5676 5675 5674 5674 5674 5673
5689 5688 5687 5686 5685 5684 5683 5682 5681 5680 5679 5679 5678 5677 5676 5676 5676 5676 5674 5673 5670 5667 5669 5673 5674 5677 5677 5678 5678 5678 5678 5677 5677 5676 5675 5674 5673 5673 5672 5672 5671 5670 5669
5682 5681 5680 5679 5679 5678 5677 5676 5675 5674 5673 5673 5673 5671 5671 5671 5671 5670 5669 5669 5668 5666 5665 5669 5669 5670 5671 5673 5673 5673 5672 5672 5672 5671 5671 5670 5670 5669 5669 5668 5667 5666 5666
5676 5675 5674 5673 5672 5671 5671 5669 5669 5668 5667 5667 5667 5666 5666 5665 5665 5665 5665 5664 5663 5662 5661 5663 5664 5665 5665 5666 5667 5667 5667 5666 5666 5666 5666 5666 5665 5665 5664 5664 5663 5662 5661
5669 5668 5667 5667 5666 5665 5664 5663 5662 5662 5661 5660 5660 5660 5660 5660 5660 5660 5659 5659 5658 5658 5658 5657 5658 5659 5659 5660 5661 5661 5661 5662 5661 5661 5661 5661 5661 5660 5659 5659 5658 5657 5657
5662 5662 5661 5660 5659 5658 5658 5657 5656 5656 5655 5655 5654 5654 5654 5654 5654 5654 5654 5654 5654 5654 5653 5652 5652 5652 5653 5654 5654 5655 5655 5655 5656 5656 5655 5655 5655 5655 5654 5654 5653 5653 5652
5655 5654 5653 5653 5652 5651 5650 5650 5650 5649 5649 5648 5648 5648 5648 5648 5649 5649 5649 5649 5649 5648 5647 5646 5646 5646 5646 5647 5647 5648 5648 5649 5649 5650 5650 5650 5650 5650 5649 5649 5649 5648 5648
5648 5647 5646 5645 5645 5644 5643 5643 5642 5642 5642 5641 5642 5642 5642 5642 5643 5643 5644 5644 5644 5643 5641 5641 5641 5641 5641 5640 5641 5642 5642 5642 5642 5643 5644 5644 5644 5644 5643 5643 5643 5643 5643
5641 5640 5639 5638 5637 5637 5636 5635 5634 5634 5634 5635 5635 5635 5635 5636 5637 5637 5638 5639 5639 5638 5637 5636 5636 5636 5637 5637 5637 5637 5636 5636 5636 5637 5637 5638 5638 5638 5638 5638 5639 5639 5639
5633 5632 5631 5630 5629 5628 5627 5627 5627 5627 5627 5627 5628 5628 5629 5631 5631 5631 5632 5633 5633 5634 5634 5634 5632 5633 5633 5634 5632 5631 5631 5631 5631 5632 5631 5631 5632 5632 5633 5633 5633 5634 5633
5626 5625 5624 5623 5622 5621 5621 5620 5620 5620 5620 5621 5621 5622 5622 5624 5625 5625 5625 5626 5627 5628 5629 5629 5629 5630 5630 5630 5629 5628 5627 5625 5625 5625 5625 5626 5626 5626 5627 5627 5628 5629 5628
5620 5619 5618 5616 5615 5614 5614 5613 5613 5613 5614 5614 5615 5615 5616 5617 5618 5618 5619 5620 5621 5622 5624 5624 5625 5625 5625 5625 5624 5622 5620 5620 5620 5620 5619 5620 5621 5621 5621 5621 5622 5623 5623
5613 5613 5612 5610 5609 5608 5607 5607 5607 5607 5607 5608 5609 5610 5610 5611 5612 5612 5613 5614 5614 5616 5616 5618 5618 5619 5620 5620 5619 5618 5618 5617 5616 5615 5615 5614 5615 5614 5615 5615 5615 5616 5616